SENTINEL-2B (42063 NORAD) Tracking and Keplerian Element Data

This shows tracking and keplerian element data for the satellite.

Feedback or suggestion? Click here.




ElementValue
Catalog42063
NameSENTINEL-2B
Epoch Orbit9220
Epoch Day345.80184183
Epoch Year2018
RAAN57.9431
Inclination98.5646
Eccentricity0.0001268
Argument of Perigee90.2896
Mean Anonmoly269.8432
Mean Motion14.3082146
Decay Rate9E-08
L11 42063U 17013A 18345.80184183 .00000009 00000-0 20100-4 0 9997
L22 42063 98.5646 57.9431 0001268 90.2896 269.8432 14.30821460 92201

Live tracking and technical data element details for SENTINEL-2B (NORAD 42063). SENTINEL-2B can be tracked NOW for your location showing map with azimuth and elevation plus other details from your city location.

Track the satellite on the map from your city or location and see movement details for azimuth, elevation, latitude, longitude, range, height, and movement on the map or in text.







IsCatalogInMostPopularTable: catalog: 42063, numindb: 154
Update: records affected: 1



GetName: 42063 SENTINEL-2B

Hit Count: updated at: Thu, 13 Dec 2018 04:15:12 GMT